Find Starlink 32558

NORAD ID: 62169 Int'l Des: 2024-225 Owner: SPXS Country: US Constellation: starlink operational
LEOCIRCULAR

Current View

Loading 3D Globe...

About Starlink 32558

Starlink 32558 (NORAD 62169) is a starlink constellation satellite (v2 mini) launched Nov 30, 2024 by SPXS of US. It operates in LEO, CIRCULAR orbit with a mass of 730.00 kg.

About Starlink 32558

Description loading...

Upcoming Passes

Passes for default location (London). Set your location on the main map for personalized predictions.

Altitude History

Loading altitude history...

Two-Line Element Set

1 62169U 24225G 26171.29974711 .00004175 00000-0 35742-3 0 9997
2 62169 70.0008 265.7899 0002653 262.2326 97.8532 14.98333724 85243
Epoch: Jun 20, 2026 • Age: 6 hours

Current Status

Altitude 575.2 km
Velocity 7.57 km/s
Sub-Earth Point -3.74°S, 151.21°E
Launch Date Nov 30, 2024
Age 1.5 years
Type internet

Technical Details

Classification Payload
Mass 730.00 kg
Dry Mass 700.00 kg
Total Mass 730.00 kg
Length 0.30 m
Diameter 4.10 m
Span 29.00 m
Shape Box + pan
Manufacturer SPXS
Bus Type Starlink V2M
Phase Status In Orbit
Owner/State SPXS/US

Most Searched